Location: Oberkirch
(48.5323°N, 8.0787°E)
Time: 15:17:36
(UTC+00:00)

Tiros 1 despin weight - Pass Details

Date: 08 February 2026
Orbit: 556 x 593 km, 48.2° (Epoch: 5 March)

Event Time Altitude Azimuth Distance (km) Brightness Sun altitude
Rises 20:02:43 0° 257° (WSW) 2,732 ? -34.1°
Reaches altitude 10° 20:04:58 10° 256° (WSW) 1,840 ? -34.4°
Enters shadow 20:05:27 13° 256° (WSW) 1,647 ? -34.5°
